Regional Weather Roundup
Issued by NWS Wakefield, VA

Home | Current Version | Previous Version | Graphics & Text | Print | Product List | Glossary On
Versions: 1 2 3 4 5 6 7 8 9 10 11 12 13 14 15 16 17 18 19 20 21 22 23 24 25 26 27 28 29 30 31 32 33 34 35 36 37 38 39 40 41 42 43 44 45 46 47 48 49 50
000
ASUS41 KAKQ 120215
RWRAKQ

REGIONAL WEATHER ROUNDUP
NATIONAL WEATHER SERVICE WAKEFIELD VA
900 PM EST THU FEB 11 2016

Note: "fair" indicates few or no clouds below 12,000 feet with no
significant weather and/or obstructions to visibility. * = Denotes
station may not report precipitation (e.g., rain,snow,etc.),
thunder or fog.

VAZ042-051-052>054-056-120300-
NORTHERN VIRGINIA

CITY           SKY/WX    TMP DP  RH WIND       PRES   REMARKS
WASH NATIONAL  FAIR      23   1  38 NW12G22   30.32R WCI  12
DULLES         FAIR      21   0  39 NW18      30.29S WCI   6
FORT BELVOIR   FAIR      23   0  36 NW13G21   30.32R WCI  11
QUANTICO       FAIR      25   1  35 N12       30.34R WCI  14
FREDERICKSBRG* FAIR      24   4  42 NW5       30.31R
STAFFORD*      FAIR      21   1  42 N8        30.36R
WARRENTON      FAIR      22   7  50 NW3       30.31R
CULPEPER*      FAIR      22   0  38 CALM      30.32R
MANASSAS*      CLEAR     19   7  58 NW5       30.31R
LEESBURG*      FAIR      23   5  46 NW5       30.31R
WINCHESTER     FAIR      19   5  53 NW10      30.27R WCI   8
FRONT ROYAL*   FAIR      21   1  42 W8        30.27R
LURAY*         FAIR      19   1  45 SW3       30.26S
$$

VAZ048-049-060>072-079>083-120300-
CENTRAL AND SOUTH CENTRAL VIRGINIA

CITY           SKY/WX    TMP DP  RH WIND       PRES   REMARKS
RICHMOND       FAIR      26   2  35 N12       30.30R WCI  16
CHESTERFIELD*  FAIR      27  -2  28 N6        30.30R
PETERSBURG*    FAIR      23   6  49 NW5       30.30R
HANOVER        FAIR      26   0  32 NW3       30.32R
TAPPAHANNOCK*  FAIR      27   1  33 NW5       30.31R
QUINTON*       FAIR      27   1  32 NW8       30.29R
CHARLOTTSVILLE FAIR      22   0  38 NW3       30.29R
GORDONSVILLE*  FAIR      23   1  38 NW3       30.30R
ORANGE*        FAIR      25   1  36 N3        30.31R
LOUISA*        FAIR      25   1  36 NW5       30.28R
BUMPASS*       FAIR      25   2  38 NW3       30.29R
FARMVILLE*     FAIR      28   1  31 NW5       30.28R
CREWE*         FAIR      27   3  35 NW8       30.27R
FORT PICKETT*  NOT AVBL
CHASE CITY*    FAIR      25   4  40 CALM      30.27R
CLARKSVILLE*   FAIR      28   7  40 N6        30.28R
SOUTH HILL*    FAIR      22   9  56 CALM      30.33R
LAWRENCEVILLE* FAIR      26   6  42 CALM      30.28R
EMPORIA*       FAIR      27   9  46 NW3       30.30R
$$

VAZ088>098-120300-
SOUTHEAST VIRGINIA

CITY           SKY/WX    TMP DP  RH WIND       PRES   REMARKS
NORFOLK        FAIR      32   5  32 NW5       30.27R
VIRGINIA BEACH FAIR      29  10  45 NW3       30.27R
NORFOLK NAVAL  FAIR      31   7  36 NW13      30.29R WCI  21
WEST POINT*    FAIR      27   1  31 NW3       30.32R
SALUDA*        FAIR      28   4  36 NW13G20   30.29R WCI  17
NEWPORT NEWS   FAIR      29   4  34 N8        30.28R
LANGLEY AFB    FAIR      28   5  37 NW5       30.27R
FORT EUSTIS    FAIR      31   4  32 NW8       30.27R
WILLIAMSBURG*  FAIR      28   9  43 N3        30.30R
HR EXEC AP*    FAIR      19  12  73 CALM      30.30R
FRANKLIN*      FAIR      27   6  39 CALM      30.29R
US460-WAKEFLD  FAIR      26   8  46 CALM      30.29R
$$

VAZ020-022-025-037-045-120300-
WEST CENTRAL AND SOUTHWEST VIRGINIA

CITY           SKY/WX    TMP DP  RH WIND       PRES   REMARKS
STAUNTON*      FAIR      22   3  43 CALM      30.27R
WAYNESBORO*    FAIR      17   0  46 NW7       30.23R
HOT SPRINGS VA FAIR       9   1  70 W13       30.01S WCI  -7
LYNCHBURG      FAIR      23   1  38 CALM      30.27R
DANVILLE       FAIR      29   4  34 E3        30.28R
SOUTH BOSTON*  FAIR      27   1  31 N5        30.28R
MARTINSVILLE   FAIR      27   2  35 NW7       30.27S
ROANOKE        FAIR      22   4  46 N13       30.27R WCI  10
BLACKSBURG     FAIR      21   7  53 NW5       30.22R
DUBLIN*        FAIR      23   8  53 NW7       30.21R
MARION*        FAIR      24   4  42 CALM      30.18R
HILLSVILLE*    FAIR      22   4  44 W5        30.14R
RICHLANDS*     FAIR      21   4  47 CALM      30.17R
WISE*          FAIR      23   3  42 CALM      30.17S
ABINGDON*      FAIR      27   7  43 CALM      30.19S
$$

MDZ021>025-VAZ099-100-120300-
SOUTHERN MARYLAND AND THE DELMARVA PENINSULA

CITY           SKY/WX    TMP DP  RH WIND       PRES   REMARKS
PATUXENT RIVER PTCLDY    25   3  38 NW22G32   30.29R WCI  10
BAY BRIDGE APT   N/A     25   1  36 NW17G24   30.30R WCI  11
LEONARDTOWN    CLEAR     25   0  33 NW8       30.31R
DOVER          CLEAR     23   4  44 W16G24    30.24R WCI  10
GEORGETOWN     CLEAR     24   1  36 NW9G18    30.27R
EASTON         CLEAR     25   3  39 NW18G28   30.31R WCI  11
CAMBRIDGE      PTCLDY    25   1  36 NW14G20   30.29R WCI  13
SALISBURY      CLEAR     23   5  46 NW8       30.28R
OCEAN CITY     CLEAR     24   4  42 NW8       30.28R
WALLOPS ISLAND FAIR      25   4  40 NW9       30.28R
ACCOMACK*      FAIR      28   7  40 NW10G21   30.28R WCI  19
$$

NCZ012>017-030>032-120300-
NORTH CENTRAL AND EASTERN NORTH CAROLINA

CITY           SKY/WX    TMP DP  RH WIND       PRES   REMARKS
ROANOKE RAPIDS FAIR      27  12  54 CALM      30.29R
RALEIGH        CLEAR     30  12  47 N5        30.27R
ELIZABETH CITY CLEAR     25  14  63 W3        30.29R
AHOSKIE*       CLEAR     25  15  65 CALM      30.30R
EDENTON*       CLEAR     30  16  55 CALM      30.30R
CURRITUCK*     CLEAR     28  21  75 CALM      30.29R
KILL DEVIL HLS CLEAR     32  13  45 CALM      30.27R
MANTEO         CLEAR     34  10  36 NW5       30.29R
CAPE HATTERAS  CLEAR     37  13  37 NW8       30.28R
TARBORO*       FAIR      27  22  79 CALM      30.30R
GOLDSBORO      CLEAR     30  16  55 NE2       30.26R
WASHINGTON     CLEAR     28  15  58 CALM      30.29R
GREENVILLE     CLEAR     30  14  51 CALM      30.29R
NEW BERN       CLEAR     25  18  74 CALM      30.29R
WILMINGTON     CLEAR     34  24  67 CALM      30.28R
$$

VAZ048-120300-
ELSEWHERE

CITY           SKY/WX    TMP DP  RH WIND       PRES   REMARKS
HARRISBURG PA  PTCLDY    21   6  52 W16G24    30.23R WCI   7
BALTIMORE      CLEAR     21   1  41 W15       30.28R WCI   8
ANNAPOLIS      CLEAR     24   4  42 NW14G23   30.29R WCI  12
ANDREWS AFB    FAIR      22   0  37 W14       30.29R WCI   9
PHILADELPHIA   PTCLDY    23  -2  33 W16G30    30.23R WCI  10
HENDERSON NC   CLEAR     27   5  39 N3        30.27R
GREENSBORO     CLEAR     28   6  39 NE5       30.23R
ROCKY MOUNT    CLEAR     26  18  71 CALM      30.28R
$$

VAZ100-120300-
MARINE

STATION/POSITION TIME  TEMP    WIND        PRES    WAVE   SWELL
                       AIR SEA DIR/SP/G            HT/PER HT/PER
                 (UTC) (F)     (DEG/KT/KT) (MB)    (FT/S) (FT/S)
BRANDYWINE LGT   0100   25                 1023.6R
CAPE MAY NJ      0100   25 37              1023.2R
LEWES DE         0100   26 37              1024.1R
15NM E FENWICK I 0150   27 43              1024.0R   5/ 6
OCEAN-CITY-INLET 0100   26 38              1023.6R
WACHAPREAGUE VA  0100   29 38              1024.4R
THOMAS POINT MD  0200   24 37  320/ 15/ 17 1026.6R
GOOSES REEF MD   0200   26 38  320/ 17/ 21 1027.0R   2/ 3
COVE POINT MD    0100   25                 1025.6R
SOLOMONS ISLAND  0100   26 40                N/A
BISHOPS HEAD MD  0100   26 34              1024.0R
POTOMAC MD       0200   27 39  340/ 16/ 19 1025.0R   2/ 3
CAMBRIDGE MD     0100   27 38              1024.3R
LEWISETTA VA     0100   28 40              1024.9R
RAPPAHANNOCK LGT 0100                      1024.3R
STINGRAY PT      0200   30 41  350/ 14/ 17 1025.6R   2/ 2
YORK RVR RNG VA  0100   33                 1023.9R
YORKTOWN VA      0100   32 41              1024.3R
JAMESTOWN VA     0200   30 42  330/  8/ 12   N/A
DOMINION TERM VA 0100   34                 1024.3R
KIPTOPEKE VA     0100      39                N/A
CHES BAY BRIDGE  0100   34 41              1024.0R
CAPE HENRY VA    0100   33                   N/A
CHESAPEAKE LGHT  0100   34     300/ 16/ 22 1025.0R
WILLOUBY STN VA  0100   33                 1025.3R
CAPE HENRY BUOY  0128      43                N/A     3/ 4
1ST LANDING BUOY 0200      41                N/A     2/ 3
CAPE CHARLES BUO 0126      42                N/A     2/ 3   2/ 9
OFFSHORE WE BUOY 0121      45                N/A     3/ 4   2/ 8
64NM E OF VA BCH 0150   36 49  300/ 17/ 23 1024.0R   5/ 6   2/ 9
DUCK PIER NC     0100   35                 1024.0R
44100 DUCK FRF   0124      46                N/A     3/ 4
44056 DUCK FRF   0111      43                N/A     2/12
OREGON INLET NC  0100   34 42              1024.8R
HATTERAS NC      0100   38 45              1024.4R
DIAMOND SHLS NC  0150   41 69  310/ 17/ 23 1025.2R   4/ 4   2/ 7
$$



USA.gov is the U.S. government's official web portal to all federal, state and local government web resources and services.